Regional Weather Roundup
Issued by NWS State College, PA

Home | Current Version | Previous Version | Text Only | Print | Product List | Glossary Off
Versions: 1 2 3 4 5 6 7 8 9 10 11 12 13 14 15 16 17 18 19 20 21 22 23 24 25 26 27 28 29 30 31 32 33 34 35 36 37 38 39 40 41 42 43 44 45 46 47 48 49 50

000
ASUS41 KCTP 260610
RWRCTP

REGIONAL WEATHER ROUNDUP
NATIONAL WEATHER SERVICE STATE COLLEGE PA
100 AM EST WED NOV 26 2014

Note: "fair" indicates few or no clouds below 12,000 feet with no
significant weather and/or obstructions to visibility.

* = STATION THAT DOES NOT REPORT PRECIPITATION /E.G. RAIN...SNOW...ETC/
    THUNDER OR FOG.

PAZ002>004-007>009-013>016-020>023-029>032-260700-
WESTERN PENNSYLVANIA

CITY           SKY/WX    TMP DP  RH WIND       PRES   REMARKS
ERIE           CLOUDY    35  24  64 NW5       30.18F
MEADVILLE      CLOUDY    31  23  72 CALM      30.16R
FRANKLIN*      CLOUDY    28  23  80 CALM      30.17R
NEW CASTLE       N/A     28  25  89 CALM      30.19R
BEAVER COUNTY  NOT AVBL
BUTLER*        MOCLDY    27  23  86 CALM      30.20R
PITTSBURGH INT MOCLDY    30  25  81 CALM      30.18R
PITTSBURGH     CLOUDY    34  22  61 CALM      30.17R
INDIANA*       CLEAR     30  27  86 CALM      30.21R
LATROBE        CLOUDY    30  27  86 CALM      30.19F
WASHINGTON CO* CLOUDY    27  23  86 CALM      30.18R
$$

PAZ004>006-010>012-017>019-024>028-033>037-041-042-045-046-049>053-260700-
CENTRAL PENNSYLVANIA

CITY           SKY/WX    TMP DP  RH WIND       PRES   REMARKS
BRADFORD       CLOUDY    31  23  72 NW10      30.11F
DUBOIS         MOCLDY    29  23  78 CALM      30.13S
CLEARFIELD     MOCLDY    31  24  75 CALM      30.15S
JOHNSTOWN      MOCLDY    30  23  75 CALM      30.13R
ALTOONA        MOCLDY    32  27  81 CALM      30.17R
STATE COLLEGE  MOCLDY    33  26  76 CALM      30.17R
WILLIAMSPORT   CLOUDY    32  27  81 CALM      30.19R
SELINSGROVE    CLOUDY    36  31  82 CALM      30.21R
FT INDIANTOWN  CLOUDY    40  31  67 E1        30.17F
CAPITAL CITY   CLOUDY    39  33  79 SW3       30.18S
HARRISBURG     CLOUDY    40  34  79 N6        30.17S
YORK           CLOUDY    37  33  85 CALM      30.16S
$$

PAZ038>040-043-044-047-048-054-055-060>062-067>071-260700-
EASTERN PENNSYLVANIA

CITY           SKY/WX    TMP DP  RH WIND       PRES   REMARKS
SCRANTON       CLOUDY    41  27  57 N6        30.15F
MOUNT POCONO   CLOUDY    39  26  59 NW5       30.12S
ALLENTOWN      CLOUDY    37  31  78 CALM      30.16F
QUAKERTOWN*    CLOUDY    37  32  81 CALM      30.17R
READING        CLOUDY    40  32  73 N3        30.16S
LANCASTER      CLOUDY    39  33  79 CALM      30.16S
COATESVILLE    CLOUDY    43  32  65 CALM      30.16S
POTTSTOWN      CLOUDY    39  33  79 CALM      30.18S
BLUE BELL      CLOUDY    41  37  87 CALM      30.17R
DOYLESTOWN     CLOUDY    41  35  79 CALM      30.16F
WILLOW GROVE   NOT AVBL
NORTH PHILA    CLOUDY    47  33  58 CALM      30.19R
PHILADELPHIA   CLOUDY    47  35  63 CALM      30.19R
$$


USA.gov is the U.S. government's official web portal to all federal, state and local government web resources and services.